Weather Roundup
Issued by NWS Chicago, IL

Home | Current Version | Previous Version | Text Only | Print | Product List | Glossary On
Versions: 1 2 3 4 5 6 7 8 9 10 11 12 13 14 15 16 17 18 19 20 21 22 23 24 25 26 27 28 29 30 31 32 33 34 35 36 37 38 39 40 41 42 43 44 45 46 47 48 49 50
000
NZUS59 KLOT 271208
HRRLOT

CHICAGO AREA WEATHER ROUNDUP
NATIONAL WEATHER SERVICE CHICAGO/ROMEOVILLE IL
700 AM CDT THU APR 27 2017

NOTE: "FAIR" INDICATES FEW OR NO CLOUDS BELOW 12,000 FEET WITH NO
SIGNIFICANT WEATHER AND/OR OBSTRUCTIONS TO VISIBILITY.

* THESE STATIONS ARE NOT UNDER NWS QUALITY CONTROL. THEY ALSO MAY NOT
  REPORT WEATHER SUCH AS PRECIPITATION OR FOG.

ILZ005-006-012>014-019>023-271300-
NORTHEAST ILLINOIS

CITY           SKY/WX    TMP DP  RH WIND       PRES   REMARKS
OHARE          LGT RAIN  52  50  93 W17G24    29.31R FOG
6HR MIN TEMP:  52; 6HR MAX TEMP:  62; 6HR PCP:  0.14;

MIDWAY         LGT RAIN  53  51  93 SW18G29   29.33R FOG
6HR MIN TEMP:  53; 6HR MAX TEMP:  62; 6HR PCP:  0.11;

AURORA         CLOUDY    46  44  93 W21G29    29.39R
6HR MIN TEMP:  46; 6HR MAX TEMP:  60; 6HR PCP:  0.38;

LANSING*       LGT RAIN  56  54  92 W29G45    29.36R
JOLIET*        DRIZZLE   47  46  97 W12G20    29.41R
WAUKEGAN       LGT RAIN  52  51  97 NW9       29.26F
6HR MIN TEMP:  52; 6HR MAX TEMP:  58; 6HR PCP:  0.19;

DUPAGE AIRPORT LGT RAIN  47  47 100 W15       29.35R FOG
6HR MIN TEMP:  47; 6HR MAX TEMP:  60; 6HR PCP:  0.28;

WHEELING       LGT RAIN  53  52  96 W13G20    29.31R FOG
6HR MIN TEMP:  54; 6HR MAX TEMP:  61; 6HR PCP:  0.16;

KANKAKEE*      CLOUDY    48  47  96 W18G28    29.46R
MORRIS*        CLOUDY    45  42  91 W16G26    29.42R
LEWIS AIRPORT* DRIZZLE   46  46 100 W21G26    29.40R
NORTHERLY ISL    N/A     59  54  83 S17         N/A
$$

WIZ051-052-058>065-066-070>072-271300-
SOUTHEAST WISCONSIN

CITY           SKY/WX    TMP DP  RH WIND       PRES   REMARKS
MILWAUKEE      LGT RAIN  50  48  93 NW12      29.28R FOG
6HR MIN TEMP:  50; 6HR MAX TEMP:  58; 6HR PCP:  0.43;

KENOSHA*       RAIN      50  48  93 NW9       29.26F FOG
RACINE*        LGT RAIN  51  50  96 NW6       29.29R
WAUKESHA       LGT RAIN  43  43 100 NW17      29.30S FOG
WEST BEND      LGT RAIN  43  43 100 NW7       29.29S
$$

INZ001>003-010>013-019-020-271300-
NORTHWEST INDIANA

CITY           SKY/WX    TMP DP  RH WIND       PRES   REMARKS
GARY*          CLOUDY    61  55  82 S14G32    29.33R
MICHIGAN CITY* NOT AVBL
RENSSELAER*    NOT AVBL
VALPARAISO     CLOUDY    61  55  81 S24G37    29.38R
$$

LMZ740>746-271300-
SOUTHERN LAKE MICHIGAN

STATION/POSITION TIME  SKY/WX   TEMP WIND        PRES    VSBY
                                AIR  DIR/SP/G
                 (UTC)          (F)  (DEG/KT/KT) (MB)    (MI)
HARRISON CRIB    1130            58  180/ 26/ 28   N/A
BURNHAM HARBOR   1200            56  210/ 24       N/A
CALUMET HARBOR   1148            59  170/ 17/ 25  992.1R
BURNS HARBOR     1140            60  180/ 19/ 31  993.6F
MICHIGAN CITY    1140            60  160/ 22/ 27   N/A
$$

ABBREVIATIONS USED IN REMARKS
   TC - TEMPERATURE IN CELSIUS
  WCI - WIND CHILL INDEX
   HX - HEAT INDEX
  VSB - VISIBILITY
$$




USA.gov is the U.S. government's official web portal to all federal, state and local government web resources and services.